Regional Weather Roundup
Issued by NWS

Home | Current Version | Previous Version | Graphics & Text | Print | Product List | Glossary On
Versions: 1 2 3 4 5 6 7 8 9 10 11 12 13 14 15 16 17 18 19 20 21 22 23 24 25 26 27 28 29 30 31 32 33 34 35 36 37 38 39 40 41 42 43 44 45 46 47 48 49 50
802
ASUS43 KIND 200459
RWRIN

WEATHER ROUNDUP FOR INDIANA
NATIONAL WEATHER SERVICE INDIANAPOLIS IN
1200 AM EST MON FEB 20 2017

NOTE: "FAIR" INDICATES FEW OR NO CLOUDS BELOW 12,000 FEET WITH NO
SIGNIFICANT WEATHER AND/OR OBSTRUCTIONS TO VISIBILITY.

* - STATION DOES NOT REPORT WEATHER SUCH AS PRECIPITATION OR FOG.

+ - STATION NOT QUALITY CONTROLLED BY THE NATIONAL WEATHER SERVICE.
    USE DATA WITH CAUTION...ESPECIALLY DEWPOINT AND RELATIVE
    HUMIDITY OBSERVATIONS.

INZ001>003-010>013-019-020-200600-
NORTHWEST INDIANA

CITY           SKY/WX    TMP DP  RH WIND       PRES   REMARKS
GARY /AIRPORT/ PTCLDY    42  37  82 SE3       30.13R
KNOX *+        PTCLDY    36  18  48 CALM      30.13R
MONTICELLO +   CLEAR     43  40  90 CALM      30.13R

$$

LMZ046-743>745-200600-
SOUTHERN LAKE MICHIGAN

STATION/POSITION TIME  TEMP    WIND        PRES    WAVE
                       AIR SEA DIR/SP/G            HT
                 (UTC) (F)     (DEG/KT/KT) (MB)    (FT)
BURNS HARBOR     0440   56     150/  7/  8 1020.3S
MICHIGAN CITY    0430   52     100/  7/  8   N/A

$$

INZ004-005-014>016-021>024-200600-
NORTH CENTRAL INDIANA

CITY           SKY/WX    TMP DP  RH WIND       PRES   REMARKS
GOSHEN         CLOUDY    38  30  73 CALM      30.15R
PERU/GRISSOM   CLEAR     45  45 100 SE6       30.13R FOG
SOUTH BEND     PTCLDY    37  26  64 CALM      30.15R
WARSAW +       CLOUDY    36  34  93 CALM      30.15R

$$

INZ006>009-017-018-025>027-200600-
NORTHEAST INDIANA

CITY           SKY/WX    TMP DP  RH WIND       PRES   REMARKS
ANGOLA *+      CLEAR     36  34  93 CALM      30.15S
FORT WAYNE     CLOUDY    39  33  79 CALM      30.15S
KENDALLVILLE + CLOUDY    40  34  80 CALM      30.15S

$$

INZ028-029-035-036-043>045-051>053-200600-
WEST CENTRAL INDIANA

CITY           SKY/WX    TMP DP  RH WIND       PRES   REMARKS
LAFAYETTE      CLEAR     43  40  89 CALM      30.14R
TERRE HAUTE    FOG       41  39  93 CALM      30.15R VSB 1

$$

INZ030>032-037>040-046>048-054>057-064-065-200600-
CENTRAL INDIANA

CITY           SKY/WX    TMP DP  RH WIND       PRES   REMARKS
CP ATTERBURY + CLEAR     39  37  93 CALM      30.17R
FRANKFORT +    CLEAR     44  41  89 CALM      30.16R
GREENWOOD *+   CLEAR     48  46  91 S5        30.16R
INDIANAPOLIS   CLEAR     48  45  89 S8        30.16R
-EAGLE CREEK   CLEAR     47  42  83 CALM      30.15R
KOKOMO +       CLEAR     45  42  89 SE3       30.15R
MT COMFORT *+  CLEAR     46  43  87 S7        30.16R
SHELBYVILLE    CLEAR     42  40  92 SE7       30.15S FOG

$$

INZ033-034-041-042-049-050-058-059-200600-
EAST CENTRAL INDIANA

CITY           SKY/WX    TMP DP  RH WIND       PRES   REMARKS
MUNCIE         CLOUDY    47  42  83 S3        30.15S

$$

INZ060-061-067>069-081>083-085>088-200600-
SOUTHWEST INDIANA

CITY           SKY/WX    TMP DP  RH WIND       PRES   REMARKS
EVANSVILLE     FOG       45  44  97 NE5       30.15S VSB 1/4
HUNTINGBURG *+ FOG       46  46 100 E3        30.16S VSB 1/4

$$

INZ062-063-066-070>080-084-089>092-200600-
SOUTH CENTRAL AND SOUTHEAST INDIANA

CITY           SKY/WX    TMP DP  RH WIND       PRES   REMARKS
BLOOMINGTON    CLEAR     39  36  89 CALM      30.15R
MADISON *+       N/A     39  37  93 CALM      30.19R VSB 1/4
SEYMOUR +      FOG       39  37  93 CALM      30.17R VSB<1/4

$$





USA.gov is the U.S. government's official web portal to all federal, state and local government web resources and services.